LIPXLIRQ

Guest
Details From LIPX - VILLAFRANCA
To LIRQ - Firenze
Flight Number -
Tags generated
Created
Modified
Stats Distance 98 nm / 182 km
Max Altitude 11,400 ft / 3,475 m
Waypoints 3
Social Downloads 0
Likes 0
Share VATSIM

Download

Looking for another format? Having issues loading an existing format? Contact us
Advertisement - Login to hide

Notes

Basic altitude profile: - Ascent Rate: 2500ft/min - Ascent Speed: 250kts - Cruise Altitude: 35000ft - Cruise Speed: 420kts - Descent Rate: 1500ft/min - Descent Speed: 250kts Options: - Use NATs: yes - Use PACOTS: yes - Use low airways: yes - Use high airways: yes

Route

LIPX KREVA LIRQ

ID Type Via Altitude (ft/m) Position (lat/lon) Dist (leg/tot) Name
O LIPX APT - 0 / 0 45.39694 / 10.89042 - / 0 nm VILLAFRANCA
KREVA FIX - 11,400 / 3,475 44.77444 / 11.23500 40 / 40 nm
O LIRQ APT - 0 / 0 43.80998 / 11.20512 57 / 98 nm Firenze

Altitude Profile

Advertisement - Login to hide

LIPX

Details ICAO LIPX (VRN)
Name VILLAFRANCA
Region Italy
Timezone Europe/Rome (UTC+2.0)
Stats Elevation 237 ft / 72 m (AMSL)
Location 45.397000° 10.890300°
Runways 1
Magnetic Variation 2.959° E

METAR

LIPX 231050Z 25008KT CAVOK 18/08 Q1023

Decode

TAF

Not found

Departure Runways

ID Width Length Bearing (true/mag) Surface Threshold Overrun Markings Lighting
04 148 ft / 45 m 10,063 ft / 3,067 m 45.60° / 42.64° ASPHALT 190 ft / 58 m 0 ft / 0 m PREC-APP CENTERLINE EDGE THRESHOLD ALSF-II TDZ
22 148 ft / 45 m 10,063 ft / 3,067 m 225.62° / 222.66° ASPHALT 1,345 ft / 410 m 0 ft / 0 m PREC-APP CENTERLINE EDGE THRESHOLD SALS

LIRQ

Details ICAO LIRQ (FLR)
Name Firenze
Region Italy
Timezone Europe/Rome (UTC+2.0)
Stats Elevation 142 ft / 43 m (AMSL)
Location 43.810000° 11.205100°
Runways 1
Magnetic Variation 2.969° E

METAR

LIRQ 231050Z 02011KT 350V060 9999 FEW040 20/07 Q1022

Decode

TAF

TAF LIRQ 230500Z 2306/2406 04015KT CAVOK

Decode

Destination Runways

ID Width Length Bearing (true/mag) Surface Threshold Overrun Markings Lighting
05 98 ft / 30 m 5,133 ft / 1,565 m 48.11° / 45.14° ASPHALT 344 ft / 105 m 0 ft / 0 m PREC-APP EDGE THRESHOLD SSALF REIL-OMNI
23 98 ft / 30 m 5,133 ft / 1,565 m 228.12° / 225.15° ASPHALT 1,909 ft / 582 m 0 ft / 0 m PREC-APP EDGE THRESHOLD REIL-OMNI

Approach Navaids

Runway Type Ident Frequency Range Bearing (true/mag) Slope Elevation
05 LOC-ILS IFZ 110.30 MHz 18 nm / 33 km 48.10° / 45.13 ° - 131 ft / 40 m (AMSL)
05 GS IFZ 110.30 MHz 10 nm / 19 km 47.00° / 44.03 ° 3.00° 144 ft / 44 m (AMSL)
05 DME IFZ 110.30 MHz 18 nm / 33 km - - 144 ft / 44 m (AMSL)

Popular Alternatives